When you browse on this site, cookies collect data to enhance your experience and personalize the content and advertising you see.
Visit our Privacy Policy to learn more. By continuing to use the site, you agree to this use of cookies and data.
  • In Hungary
  • List of Countries
  • For 7 days
  • Water Temperature
  • Satellite Maps
  • Weather Map
  • News
  • Weather Widgets
  • user-avatar
    Login

    Hourly Weather Sarabkino

    Today, 17 November, Saturday

    Time Temperature Precipitation Wind Pressure Humidity
    00:00 -3°C° 0 mm 1 mps 765 mmHg 31%
    01:00 -3°C° 0 mm 1 mps 765 mmHg 31%
    02:00 -6°C° 0 mm 2 mps 765 mmHg 31%
    03:00 -6°C° 0 mm 2 mps 764 mmHg 31%
    04:00 -6°C° 0 mm 2 mps 764 mmHg 30%
    05:00 -6°C° 0 mm 2 mps 763 mmHg 30%
    06:00 -6°C° 0 mm 2 mps 763 mmHg 30%
    07:00 -7°C° 0 mm 3 mps 763 mmHg 30%
    08:00 -6°C° 0 mm 3 mps 762 mmHg 28%
    09:00 -6°C° 0 mm 3 mps 762 mmHg 26%
    10:00 -5°C° 0 mm 4 mps 761 mmHg 24%
    11:00 -4°C° 0 mm 4 mps 761 mmHg 23%
    12:00 -3°C° 0 mm 4 mps 760 mmHg 22%
    13:00 -2°C° 0 mm 4 mps 760 mmHg 21%
    14:00 -2°C° 0 mm 4 mps 759 mmHg 23%
    15:00 -1°C° 0 mm 3 mps 759 mmHg 25%
    16:00 -2°C° 0 mm 3 mps 758 mmHg 27%
    17:00 -2°C° 0 mm 3 mps 758 mmHg 28%
    18:00 -2°C° 0 mm 3 mps 757 mmHg 29%
    19:00 -4°C° 0 mm 3 mps 757 mmHg 30%
    20:00 -4°C° 0 mm 3 mps 757 mmHg 31%
    21:00 -4°C° 0 mm 3 mps 756 mmHg 32%
    22:00 -5°C° 0 mm 3 mps 756 mmHg 32%
    23:00 -5°C° 0 mm 3 mps 755 mmHg 32%

    Tomorrow, 18 November, Sunday

    Time Temperature Precipitation Wind Pressure Humidity
    00:00 -4°C° 0 mm 3 mps 755 mmHg 32%
    01:00 -4°C° 0 mm 3 mps 755 mmHg 32%
    02:00 -4°C° 0 mm 3 mps 754 mmHg 32%
    03:00 -4°C° 0 mm 3 mps 754 mmHg 31%
    04:00 -4°C° 0 mm 3 mps 754 mmHg 31%
    05:00 -4°C° 0 mm 3 mps 753 mmHg 31%
    06:00 -5°C° 0 mm 3 mps 753 mmHg 31%
    07:00 -5°C° 0 mm 3 mps 753 mmHg 31%
    08:00 -4°C° 0 mm 3 mps 753 mmHg 29%
    09:00 -3°C° 0 mm 4 mps 753 mmHg 28%
    10:00 -3°C° 0 mm 4 mps 753 mmHg 27%
    11:00 -2°C° 0 mm 4 mps 753 mmHg 26%
    12:00 -1°C° 0 mm 4 mps 753 mmHg 25%
    13:00 -1°C° 0 mm 4 mps 753 mmHg 25%
    14:00 -1°C° 0 mm 4 mps 753 mmHg 27%
    15:00 -1°C° 0 mm 3 mps 753 mmHg 29%
    16:00 -1°C° 0 mm 3 mps 753 mmHg 31%
    17:00 -2°C° 0 mm 3 mps 753 mmHg 31%
    18:00 -4°C° 0 mm 3 mps 753 mmHg 32%
    19:00 -4°C° 0 mm 3 mps 753 mmHg 33%
    20:00 -4°C° 0 mm 3 mps 754 mmHg 33%
    21:00 -4°C° 0 mm 2 mps 754 mmHg 33%
    22:00 -4°C° 0 mm 2 mps 754 mmHg 33%
    23:00 -4°C° 0 mm 2 mps 754 mmHg 33%

    Day after tomorrow, 19 November, Monday

    Time Temperature Precipitation Wind Pressure Humidity
    00:00 -4°C° 0 mm 2 mps 754 mmHg 32%
    01:00 -4°C° 0 mm 2 mps 754 mmHg 32%
    02:00 -5°C° 0 mm 2 mps 754 mmHg 33%
    03:00 -3°C° 0 mm 1 mps 755 mmHg 33%
    04:00 -3°C° 0 mm 1 mps 755 mmHg 33%
    05:00 -3°C° 0 mm 1 mps 755 mmHg 34%
    06:00 -3°C° 0 mm 1 mps 755 mmHg 34%
    07:00 -3°C° 0 mm 1 mps 755 mmHg 34%
    08:00 -3°C° 0 mm 1 mps 756 mmHg 33%
    09:00 -2°C° 0 mm 1 mps 756 mmHg 32%
    10:00 -2°C° 0 mm 1 mps 757 mmHg 31%
    11:00 -1°C° 0 mm 1 mps 757 mmHg 30%
    12:00 0°C° 0 mm 1 mps 757 mmHg 29%
    13:00 +1°C° 0 mm 1 mps 757 mmHg 28%
    14:00 0°C° 0 mm 1 mps 757 mmHg 30%
    15:00 0°C° 0 mm 1 mps 757 mmHg 33%
    16:00 -1°C° 0 mm 1 mps 758 mmHg 35%
    17:00 -1°C° 0 mm 1 mps 758 mmHg 38%
    18:00 -4°C° 0 mm 2 mps 758 mmHg 41%
    19:00 -4°C° 0 mm 2 mps 758 mmHg 43%
    20:00 -4°C° 0 mm 2 mps 758 mmHg 47%
    21:00 -4°C° 0 mm 2 mps 758 mmHg 50%
    22:00 -4°C° 0 mm 2 mps 758 mmHg 54%
    23:00 -5°C° 0 mm 2 mps 758 mmHg 58%

    20 November, Tuesday

    Time Temperature Precipitation Wind Pressure Humidity
    00:00 -3°C° 0 mm 1 mps 758 mmHg 62%
    01:00 -3°C° 0 mm 1 mps 758 mmHg 66%
    02:00 -5°C° 0 mm 2 mps 758 mmHg 70%
    03:00 -5°C° 0 mm 2 mps 759 mmHg 74%
    04:00 -5°C° 0 mm 2 mps 759 mmHg 78%
    05:00 -4°C° 0 mm 2 mps 759 mmHg 82%
    06:00 -4°C° 0 mm 2 mps 759 mmHg 86%
    07:00 -4°C° 0 mm 2 mps 759 mmHg 89%
    08:00 -4°C° 0 mm 2 mps 759 mmHg 89%
    09:00 -3°C° 0 mm 2 mps 759 mmHg 89%
    10:00 -3°C° 0 mm 2 mps 759 mmHg 90%
    11:00 -2°C° 0 mm 2 mps 759 mmHg 87%
    12:00 -1°C° 0 mm 2 mps 759 mmHg 85%
    13:00 -1°C° 0 mm 2 mps 759 mmHg 83%
    14:00 -1°C° 0 mm 2 mps 758 mmHg 85%
    15:00 -2°C° 0 mm 2 mps 758 mmHg 88%
    16:00 -2°C° 0 mm 2 mps 758 mmHg 90%
    17:00 -2°C° 0 mm 2 mps 758 mmHg 91%
    18:00 -3°C° 0 mm 2 mps 758 mmHg 92%
    19:00 -3°C° 0 mm 2 mps 757 mmHg 93%
    20:00 -4°C° 0 mm 2 mps 757 mmHg 94%
    21:00 -4°C° 0 mm 2 mps 757 mmHg 94%
    22:00 -4°C° 0 mm 2 mps 757 mmHg 94%
    23:00 -4°C° 0 mm 2 mps 757 mmHg 95%

    21 November, Wednesday

    Time Temperature Precipitation Wind Pressure Humidity
    00:00 -4°C° 0 mm 2 mps 756 mmHg 95%
    01:00 -4°C° 0 mm 2 mps 756 mmHg 95%
    02:00 -4°C° 0 mm 2 mps 756 mmHg 95%
    03:00 -4°C° 0 mm 2 mps 756 mmHg 95%
    04:00 -4°C° 0 mm 2 mps 755 mmHg 95%
    05:00 -5°C° 0 mm 2 mps 755 mmHg 95%
    06:00 -5°C° 0 mm 2 mps 755 mmHg 95%
    07:00 -5°C° 0 mm 2 mps 754 mmHg 95%
    08:00 -5°C° 0 mm 2 mps 754 mmHg 91%
    09:00 -4°C° 0 mm 2 mps 754 mmHg 87%
    10:00 -4°C° 0 mm 2 mps 754 mmHg 84%
    11:00 -4°C° 0 mm 3 mps 753 mmHg 77%
    12:00 -4°C° 0 mm 3 mps 753 mmHg 71%
    13:00 -2°C° 0 mm 3 mps 753 mmHg 64%
    14:00 -2°C° 0 mm 3 mps 752 mmHg 62%
    15:00 -2°C° 0 mm 3 mps 752 mmHg 60%
    16:00 -4°C° 0 mm 3 mps 751 mmHg 58%
    17:00 -4°C° 0 mm 3 mps 751 mmHg 57%
    18:00 -4°C° 0 mm 3 mps 751 mmHg 56%
    19:00 -4°C° 0 mm 3 mps 750 mmHg 54%
    20:00 -4°C° 0 mm 3 mps 750 mmHg 58%
    21:00 -4°C° 0 mm 3 mps 750 mmHg 61%
    22:00 -5°C° 0 mm 3 mps 749 mmHg 64%
    23:00 -5°C° 0 mm 3 mps 749 mmHg 67%

    22 November, Thursday

    Time Temperature Precipitation Wind Pressure Humidity
    00:00 -5°C° 0 mm 3 mps 749 mmHg 70%
    01:00 -5°C° 0 mm 3 mps 748 mmHg 73%
    02:00 -5°C° 0 mm 3 mps 748 mmHg 74%
    03:00 -5°C° 0 mm 3 mps 748 mmHg 75%
    04:00 -6°C° 0 mm 3 mps 747 mmHg 75%
    05:00 -6°C° 0 mm 3 mps 747 mmHg 78%
    06:00 -6°C° 0 mm 3 mps 747 mmHg 80%
    07:00 -6°C° 0 mm 3 mps 746 mmHg 82%
    08:00 -6°C° 0 mm 3 mps 747 mmHg 82%
    09:00 -6°C° 0 mm 3 mps 747 mmHg 82%
    10:00 -5°C° 0 mm 3 mps 747 mmHg 82%
    11:00 -5°C° 0 mm 4 mps 747 mmHg 74%
    12:00 -5°C° 0 mm 4 mps 747 mmHg 65%
    13:00 -4°C° 0 mm 4 mps 747 mmHg 57%
    14:00 -5°C° 0 mm 3 mps 747 mmHg 55%
    15:00 -5°C° 0 mm 3 mps 747 mmHg 54%
    16:00 -6°C° 0 mm 3 mps 747 mmHg 52%
    17:00 -6°C° 0 mm 3 mps 747 mmHg 55%
    18:00 -6°C° 0 mm 2 mps 747 mmHg 58%
    19:00 -6°C° 0 mm 2 mps 747 mmHg 61%
    20:00 -6°C° 0 mm 2 mps 747 mmHg 64%
    21:00 -7°C° 0 mm 2 mps 747 mmHg 68%
    22:00 -7°C° 0 mm 2 mps 747 mmHg 71%
    23:00 -8°C° 0 mm 3 mps 747 mmHg 73%
    Show more